Starlink 4032

operational
NORAD ID: 52688 Int'l Des: 2022-053 Owner: SPXS Country: US Constellation: starlink
LEOCIRCULAR

About Starlink 4032

Description loading...

Live Position

Loading 3D Globe...

Upcoming Passes

Altitude History

Altitude vs Time

uPlot chart will show altitude changes over time

Two-Line Element Set

1 52688U 22053AJ 25306.40815781 -.00000373 00000-0 -53413-5 0 9997
2 52688 53.2178 355.3938 0001375 92.8590 267.2560 15.08839263191905
Epoch: Nov 2, 2025 • Age: 35 hours

Current Status

Altitude 539.8 km
Velocity 7.60 km/s
Sub-Earth Point 16.99°N, 5.64°E
Launch Date May 18, 2022
Age 3.4 years
Type internet

Technical Details

Classification Payload
Mass 297.00 kg
Dry Mass 275.00 kg
Total Mass 297.00 kg
Length 0.20 m
Diameter 2.80 m
Span 9.00 m
Shape Box + pan
Manufacturer SPXS
Bus Type Starlink
Phase Status In Orbit
Owner/State SPXS/US

Large Constellations

Loading constellations...